Гаврилов-Ям

Россия / Ярославская область     57°18′14″N   39°51′13″E
темп.,
°C
ветер,
м/с
пор.,
м/с
влажн.,
%
обл.,
%
осадки,
мм/ч
давл.,
гПа
погр.,
м
14 июня, пн
пн1400:00+14ююз22901 0.0 101023
03:00+14ююз229071 0.0 101018
06:00+16ююз2387100 0.0 101176
09:00+18юз2484100 0.0 1013215
12:00+23з24585 1.1 10141205
15:00+22ююз357195 1.2 1014426
18:00+22ююз117739 0.1 101320
21:00+19зюз1181100 0.6 101411
15 июня, вт
вт1500:00+17ссв228731 0.1 101420
03:00+15св229197 0.1 101438
06:00+17св1190100 0.0 101472
09:00+20в11796 0.0 1014346
12:00+23юз22691 2.1 1012503
15:00+25юз23620 2.8 10111171
18:00+23ююз35787 0.7 1010198
21:00+19ю228488 1.8 100914
16 июня, ср
ср1600:00+18ююз228792 0.1 100925
03:00+17юз2293100 1.6 100934
06:00+17ссз4989100 1.4 1009256
09:00+16ссз51188100 1.5 1011461
12:00+19ссз786929 0.0 10121142
15:00+20с79600 0.0 10141542
18:00+18ссз511615 0.0 1015590
21:00+14сз356499 0.0 101667
17 июня, чт
чт1700:00+12ссз48650 0.0 1019123
03:00+10сз34625 0.0 102056
06:00+12сз27770 0.0 1022174
09:00+18сз46650 0.0 1023669
12:00+21сз585212 0.0 10232116
15:00+21ссз356097 0.0 10231363
18:00+21сз147116 0.0 1023431
21:00+17з22745 0.0 102411
18 июня, пт
пт1800:00+13зсз22825 0.0 102511
03:00+12з22850 0.0 102622
06:00+15з23810 0.0 1026104
09:00+20з23670 0.0 1026414
12:00+24з34530 0.0 10261322
15:00+25з35515 0.0 10251700
18:00+24зюз356844 0.0 1024365
21:00+19зюз22774 0.0 102412